ELY363 LLBG-LOWW

Flight info

Callsign ELY363
Flight time N/A
Altitude 32000
Route SUVAS DCT TEZAK L324 SAFTA DCT MAROS DCT LUTIG DCT EXELA UN127 LMO DCT EVIVI DCT OKANA DCT ESIRI DCT DONIV DCT PARAK DCT BALUX DCT TORNO DCT NATEX NATEX2W
Aircraft B738/M-SDE2E3FGHIJ1LORVWXY/LB1

Departure

Time N/A
Airport Ben Gurion International Airport (LLBG)

Arrival

Time 2026-05-07 17:43
Airport Vienna International Airport (LOWW)
Time Latitude Longitude Altitude Speed Heading
2026-05-07 17:14 47.32840 19.13157 31992 ft 402 kts 308°
2026-05-07 17:14 47.34628 19.09995 32010 ft 403 kts 301°
2026-05-07 17:15 47.37354 19.02770 32009 ft 411 kts 290°
2026-05-07 17:15 47.39771 18.94914 32008 ft 424 kts 290°
2026-05-07 17:16 47.42238 18.86947 32008 ft 435 kts 290°
2026-05-07 17:16 47.44758 18.78853 31992 ft 442 kts 290°
2026-05-07 17:17 47.47203 18.71003 31989 ft 440 kts 290°
2026-05-07 17:17 47.49466 18.63702 31988 ft 440 kts 290°
2026-05-07 17:18 47.51986 18.55541 31314 ft 447 kts 290°
2026-05-07 17:18 47.53271 18.51372 30607 ft 444 kts 290°
2026-05-07 17:18 47.54472 18.47177 29773 ft 442 kts 286°
2026-05-07 17:19 47.55450 18.42871 28833 ft 441 kts 284°
2026-05-07 17:19 47.56354 18.38542 27925 ft 440 kts 283°
2026-05-07 17:19 47.57236 18.34206 27149 ft 438 kts 283°
2026-05-07 17:19 47.58112 18.29921 26489 ft 433 kts 283°
2026-05-07 17:20 47.58990 18.25669 25845 ft 429 kts 283°
2026-05-07 17:20 47.59934 18.21509 25439 ft 422 kts 288°
2026-05-07 17:20 47.61074 18.17542 25220 ft 421 kts 290°
2026-05-07 17:20 47.62294 18.13503 24995 ft 437 kts 290°
2026-05-07 17:21 47.63560 18.09354 24761 ft 447 kts 290°
2026-05-07 17:21 47.64845 18.05134 24529 ft 449 kts 290°
2026-05-07 17:21 47.66116 18.00929 24290 ft 444 kts 290°
2026-05-07 17:21 47.67369 17.96748 24054 ft 441 kts 290°
2026-05-07 17:22 47.68604 17.92592 23826 ft 439 kts 290°
2026-05-07 17:22 47.69829 17.88441 23599 ft 437 kts 290°
2026-05-07 17:22 47.71025 17.84374 23340 ft 436 kts 290°
2026-05-07 17:22 47.72186 17.80418 23074 ft 435 kts 289°
2026-05-07 17:23 47.73400 17.76273 22827 ft 434 kts 289°
2026-05-07 17:23 47.74575 17.72256 22555 ft 433 kts 289°
2026-05-07 17:23 47.75705 17.68386 22301 ft 432 kts 289°
2026-05-07 17:23 47.76911 17.64253 22042 ft 431 kts 289°
2026-05-07 17:24 47.78015 17.60461 21798 ft 430 kts 289°
2026-05-07 17:24 47.79098 17.56737 21570 ft 428 kts 289°
2026-05-07 17:24 47.80086 17.53337 21354 ft 427 kts 289°
2026-05-07 17:24 47.81181 17.49561 21119 ft 426 kts 289°
2026-05-07 17:25 47.82314 17.45646 20866 ft 424 kts 289°
2026-05-07 17:25 47.83481 17.41608 20625 ft 422 kts 289°
2026-05-07 17:25 47.84636 17.37605 20379 ft 420 kts 289°
2026-05-07 17:25 47.85769 17.33672 20142 ft 419 kts 289°
2026-05-07 17:26 47.86447 17.31313 19994 ft 418 kts 289°
2026-05-07 17:26 47.87508 17.27622 19766 ft 417 kts 289°
2026-05-07 17:26 47.88643 17.23665 19528 ft 415 kts 289°
2026-05-07 17:26 47.89392 17.21048 19377 ft 414 kts 289°
2026-05-07 17:27 47.90520 17.17106 19136 ft 411 kts 289°
2026-05-07 17:27 47.91624 17.13249 18932 ft 398 kts 289°
2026-05-07 17:27 47.92694 17.09503 18573 ft 388 kts 290°
2026-05-07 17:27 47.94079 17.04634 17900 ft 382 kts 290°
2026-05-07 17:28 47.95029 17.01286 17403 ft 378 kts 290°
2026-05-07 17:28 47.96048 16.97693 16890 ft 374 kts 290°
2026-05-07 17:28 47.96730 16.95287 16534 ft 372 kts 291°
2026-05-07 17:28 47.97734 16.91738 16031 ft 369 kts 291°
2026-05-07 17:29 47.98713 16.88275 15537 ft 365 kts 291°
2026-05-07 17:29 47.99869 16.84923 15013 ft 365 kts 305°
2026-05-07 17:29 48.01672 16.82274 14546 ft 364 kts 324°
2026-05-07 17:29 48.03875 16.80447 14095 ft 361 kts 332°
2026-05-07 17:30 48.06117 16.78803 13597 ft 359 kts 333°
2026-05-07 17:30 48.08350 16.77146 13056 ft 356 kts 332°
2026-05-07 17:30 48.10551 16.75475 12523 ft 353 kts 332°
2026-05-07 17:30 48.12700 16.73825 11998 ft 341 kts 332°
2026-05-07 17:31 48.14771 16.72226 11489 ft 330 kts 332°
2026-05-07 17:31 48.16779 16.70673 10984 ft 321 kts 332°
2026-05-07 17:31 48.18741 16.69155 10489 ft 313 kts 331°
2026-05-07 17:31 48.20650 16.67678 10137 ft 302 kts 332°
2026-05-07 17:32 48.22485 16.66304 9877 ft 289 kts 336°
2026-05-07 17:32 48.24354 16.65374 9600 ft 278 kts 343°
2026-05-07 17:32 48.26191 16.64654 9324 ft 269 kts 344°
2026-05-07 17:32 48.27995 16.63959 9066 ft 266 kts 343°
2026-05-07 17:33 48.29780 16.63247 8806 ft 264 kts 343°
2026-05-07 17:33 48.31541 16.62523 8542 ft 262 kts 342°
2026-05-07 17:33 48.33288 16.61793 8289 ft 260 kts 342°
2026-05-07 17:33 48.35019 16.61066 8041 ft 258 kts 342°
2026-05-07 17:34 48.36734 16.60343 7780 ft 256 kts 342°
2026-05-07 17:34 48.38445 16.59621 7520 ft 253 kts 342°
2026-05-07 17:34 48.40135 16.58907 7275 ft 251 kts 342°
2026-05-07 17:34 48.41816 16.58197 7029 ft 250 kts 342°
2026-05-07 17:35 48.43485 16.57490 6774 ft 248 kts 342°
2026-05-07 17:35 48.44968 16.56338 6504 ft 243 kts 311°
2026-05-07 17:35 48.45727 16.54140 6266 ft 237 kts 280°
2026-05-07 17:35 48.45692 16.51685 6020 ft 236 kts 256°
2026-05-07 17:36 48.44943 16.49511 5761 ft 237 kts 229°
2026-05-07 17:36 48.43620 16.48067 5578 ft 236 kts 204°
2026-05-07 17:36 48.42034 16.47536 5456 ft 232 kts 188°
2026-05-07 17:36 48.40462 16.47378 5348 ft 221 kts 186°
2026-05-07 17:37 48.38973 16.47261 5230 ft 207 kts 186°
2026-05-07 17:37 48.37573 16.47146 5096 ft 196 kts 186°
2026-05-07 17:37 48.36208 16.47421 5016 ft 200 kts 166°
2026-05-07 17:37 48.34887 16.48046 4995 ft 199 kts 166°
2026-05-07 17:38 48.33561 16.48648 4953 ft 201 kts 167°
2026-05-07 17:38 48.32203 16.49239 4719 ft 203 kts 167°
2026-05-07 17:38 48.30873 16.49808 4441 ft 199 kts 167°
2026-05-07 17:38 48.29539 16.50374 4175 ft 194 kts 167°
2026-05-07 17:39 48.28270 16.50912 3920 ft 191 kts 167°
2026-05-07 17:39 48.26984 16.51456 3668 ft 192 kts 167°
2026-05-07 17:39 48.25704 16.51998 3416 ft 190 kts 167°
2026-05-07 17:39 48.24441 16.52534 3167 ft 187 kts 167°
2026-05-07 17:40 48.23200 16.53060 2912 ft 183 kts 167°
2026-05-07 17:40 48.22027 16.53558 2706 ft 168 kts 167°
2026-05-07 17:40 48.20958 16.54011 2467 ft 151 kts 166°
2026-05-07 17:40 48.19965 16.54433 2265 ft 146 kts 166°
2026-05-07 17:41 48.18968 16.54852 2080 ft 151 kts 166°
2026-05-07 17:41 48.17953 16.55285 1879 ft 152 kts 166°
2026-05-07 17:41 48.16929 16.55716 1644 ft 154 kts 166°
2026-05-07 17:41 48.15902 16.56163 1397 ft 153 kts 166°
2026-05-07 17:42 48.14884 16.56598 1217 ft 151 kts 167°
2026-05-07 17:42 48.13867 16.57027 995 ft 152 kts 168°
2026-05-07 17:42 48.12857 16.57450 787 ft 149 kts 169°
2026-05-07 17:42 48.11892 16.57856 629 ft 138 kts 169°
2026-05-07 17:43 48.11157 16.58166 614 ft 117 kts 167°
2026-05-07 17:43 48.10568 16.58410 614 ft 57 kts 164°
2026-05-07 17:43 48.10246 16.58443 608 ft 36 kts 194°
2026-05-07 17:43 48.10127 16.58347 612 ft 11 kts 274°
2026-05-07 17:44 48.10186 16.58297 608 ft 10 kts 347°
2026-05-07 17:44 48.10252 16.58270 618 ft 10 kts 342°
2026-05-07 17:44 48.10327 16.58237 617 ft 13 kts 344°
2026-05-07 17:44 48.10433 16.58192 614 ft 18 kts 344°
2026-05-07 17:45 48.10551 16.58142 620 ft 17 kts 344°
2026-05-07 17:45 48.10671 16.58092 621 ft 19 kts 344°
2026-05-07 17:45 48.10817 16.58030 617 ft 24 kts 344°
2026-05-07 17:45 48.10969 16.57916 613 ft 25 kts 314°
2026-05-07 17:46 48.11067 16.57711 608 ft 23 kts 295°
2026-05-07 17:46 48.11137 16.57496 612 ft 23 kts 296°
2026-05-07 17:46 48.11205 16.57289 611 ft 22 kts 296°
2026-05-07 17:46 48.11271 16.57087 615 ft 21 kts 296°
2026-05-07 17:47 48.11335 16.56891 617 ft 21 kts 295°
2026-05-07 17:47 48.11396 16.56700 615 ft 20 kts 295°
2026-05-07 17:47 48.11455 16.56515 611 ft 19 kts 295°
2026-05-07 17:47 48.11515 16.56337 608 ft 19 kts 296°
2026-05-07 17:48 48.11571 16.56164 610 ft 18 kts 296°
2026-05-07 17:48 48.11628 16.55999 612 ft 18 kts 310°
2026-05-07 17:48 48.11726 16.55963 616 ft 8 kts 320°
2026-05-07 17:48 48.11751 16.55892 612 ft 8 kts 295°
2026-05-07 17:49 48.11782 16.55832 613 ft 7 kts 338°
2026-05-07 17:49 48.11832 16.55856 620 ft 8 kts 26°
2026-05-07 17:49 48.11881 16.55892 617 ft 8 kts 25°
2026-05-07 17:49 48.11930 16.55926 608 ft 8 kts 25°
2026-05-07 17:50 48.11954 16.55962 613 ft 5 kts 74°
2026-05-07 17:50 48.11951 16.55987 613 ft 1 kts 126°
2026-05-07 17:50 48.11943 16.55995 617 ft 3 kts 146°
2026-05-07 17:50 48.11921 16.56009 612 ft 4 kts 160°
2026-05-07 17:51 48.11906 16.56016 614 ft 1 kts 160°
2026-05-07 17:51 48.11904 16.56018 620 ft 0 kts 160°
2026-05-07 17:51 48.11901 16.56019 618 ft 1 kts 160°
2026-05-07 17:51 48.11899 16.56021 617 ft 0 kts 160°